This is the latest recevied weather packets stored in our database for station/object KI6SYE. If no packets are shown the sender has not sent any weather packets the latest 10 day(s).
| Time | Temp. | Humidity | Pressure | Rain* | Wind** | Luminosity | Snow |
|---|---|---|---|---|---|---|---|
| 1788530576 | 18.33° C | 91% | 1012.5 hPa | 0 mm | - | 27 W/m² | - |
| 1788530275 | 17.78° C | 91% | 1012.5 hPa | 0 mm | - | 22 W/m² | - |
| 1788529970 | 17.78° C | 91% | 1012.4 hPa | 0 mm | - | 17 W/m² | - |
| 1788529666 | 17.78° C | 91% | 1012.5 hPa | 0 mm | - | 13 W/m² | - |
| 1788529366 | 17.78° C | 90% | 1012.3 hPa | 0 mm | - | 10 W/m² | - |
| 1788529061 | 17.78° C | 90% | 1012.4 hPa | 0 mm | - | 7 W/m² | - |
| 1788528757 | 17.78° C | 90% | 1012.4 hPa | 0 mm | - | 5 W/m² | - |
| 1788528456 | 17.78° C | 90% | 1012.2 hPa | 0 mm | - | 2 W/m² | - |
| 1788528146 | 17.78° C | 90% | 1012.4 hPa | 0 mm | - | 1 W/m² | - |
| 1788527845 | 17.78° C | 90% | 1012.5 hPa | 0 mm | - | 0 W/m² | - |
| 1788527541 | 17.78° C | 90% | 1012.5 hPa | 0 mm | - | 0 W/m² | - |
| 1788527241 | 17.78° C | 90% | 1012.3 hPa | 0 mm | - | 0 W/m² | - |
| 1788526940 | 17.78° C | 90% | 1012.3 hPa | 0 mm | - | 0 W/m² | - |
| 1788526636 | 17.78° C | 90% | 1012.3 hPa | 0 mm | - | 0 W/m² | - |
| 1788526362 | 17.78° C | 90% | 1012.3 hPa | 0 mm | - | 0 W/m² | - |
| 1788526026 | 17.78° C | 90% | 1012.2 hPa | 0 mm | - | 0 W/m² | - |
| 1788525722 | 17.78° C | 90% | 1012.4 hPa | 0 mm | - | 0 W/m² | - |
| 1788525416 | 17.78° C | 90% | 1012.1 hPa | 0 mm | - | 0 W/m² | - |
| 1788525112 | 17.78° C | 90% | 1012.3 hPa | 0 mm | - | 0 W/m² | - |
| 1788524806 | 17.78° C | 90% | 1012.1 hPa | 0 mm | - | 0 W/m² | - |
| 1788524501 | 17.78° C | 90% | 1012.1 hPa | 0 mm | - | 0 W/m² | - |
| 1788524196 | 17.78° C | 90% | 1011.9 hPa | 0 mm | - | 0 W/m² | - |
| 1788523892 | 17.78° C | 90% | 1012 hPa | 0 mm | - | 0 W/m² | - |
| 1788523607 | 17.78° C | 90% | 1012 hPa | 0 mm | - | 0 W/m² | - |
| 1788523284 | 17.78° C | 90% | 1011.8 hPa | 0 mm | - | 0 W/m² | - |
* Rain latest hour (hover to see other rain measurements)
** Current wind speed in m/s (hover to see current wind gust speed)